Arbor Vitae, WI

2:52 PM CDT on July 21, 2017 (GMT -0500)
Lakeland-Lee Memorial

Weather History for KARV - October, 2013

Change the Weather History Date:

Sunday, October 6, 2013

  Actual Average Record
Temperature  
Mean Temperature 52 °F -  
Max Temperature 58 °F 58 °F 84 °F (1963)
Min Temperature 46 °F 36 °F 19 °F (1935)
Degree Days  
Heating Degree Days 14    
Growing Degree Days 2 (Base 50)    
Moisture  
Dew Point 49 °F    
Average Humidity 87    
Maximum Humidity 95    
Minimum Humidity 66    
Precipitation  
Precipitation 0.27 in - - ()
Sea Level Pressure  
Sea Level Pressure 29.68 in    
Wind  
Wind Speed 5 mph (West)    
Max Wind Speed 14 mph    
Max Gust Speed 20 mph    
Visibility 8 miles    
Events Fog , Rain    
Averages and records for this station are not official NWS values.
T = Trace of Precipitation, MM = Missing Value Source: NWS Daily Summary

Daily Weather History Graph

Daily Weather History Graph

Search for Another Location

Airport or City:

Trip Planner

Search our weather history database for the weather conditions in past years. The results will help you decide how hot, cold, wet, or windy it might be!

Date:

Astronomy

Oct. 06, 2013 Rise Set
Actual Time 7:04 AM CDT 6:28 PM CDT
Civil Twilight 6:34 AM CDT 6:58 PM CDT
Nautical Twilight 5:59 AM CDT 7:33 PM CDT
Astronomical Twilight 5:24 AM CDT 8:08 PM CDT
Moon 8:55 AM CDT (10/6) 7:20 PM CDT (10/6)
Length of Visible Light 12h 24m
Length of Day
11h 24m
Waxing Crescent, 3% of the Moon is Illuminated
Oct 6
Waxing Crescent
Oct 11
First Quarter
Oct 18
Full
Oct 26
Last Quarter
Nov 3
New

Hourly Weather History & Observations

Time (CDT) Temp. Dew Point Humidity Pressure Visibility Wind Dir Wind Speed Gust Speed Precip Events Conditions
12:15 AM 54.5 °F 52.5 °F 93% 29.72 in 10.0 mi SW 8.1 mph - 0.01 in Rain Rain
12:35 AM 54.5 °F 52.7 °F 94% 29.72 in 2.5 mi SSW 5.8 mph - 0.16 in Rain Heavy Rain
12:55 AM 54.5 °F 52.7 °F 94% 29.71 in 10.0 mi Calm Calm - 0.20 in   Mostly Cloudy
1:15 AM 54.5 °F 52.7 °F 94% 29.70 in 10.0 mi Calm Calm - N/A   Overcast
1:35 AM 54.5 °F 52.7 °F 94% 29.70 in 5.0 mi Calm Calm - N/A   Overcast
1:55 AM 54.5 °F 52.7 °F 94% 29.70 in 10.0 mi Calm Calm - N/A   Overcast
2:15 AM 54.5 °F 52.7 °F 94% 29.69 in 10.0 mi East 3.5 mph - N/A   Overcast
2:35 AM 54.3 °F 52.5 °F 94% 29.68 in 10.0 mi WSW 5.8 mph - N/A   Overcast
2:55 AM 54.5 °F 52.7 °F 94% 29.68 in 10.0 mi Calm Calm - N/A   Overcast
3:15 AM 54.5 °F 52.7 °F 94% 29.68 in 2.5 mi SW 3.5 mph - N/A   Overcast
3:35 AM 54.5 °F 52.9 °F 94% 29.66 in 0.5 mi Calm Calm - N/A Fog Fog
3:55 AM 54.5 °F 52.9 °F 94% 29.67 in 0.5 mi SW 4.6 mph - N/A Fog Fog
4:15 AM 54.5 °F 52.9 °F 94% 29.68 in 1.0 mi SW 4.6 mph - N/A   Overcast
4:35 AM 54.0 °F 52.5 °F 95% 29.68 in 5.0 mi WSW 4.6 mph - N/A   Overcast
4:55 AM 53.1 °F 51.8 °F 95% 29.69 in 10.0 mi WSW 4.6 mph - N/A   Overcast
5:15 AM 51.8 °F 50.4 °F 95% 29.69 in 10.0 mi WSW 3.5 mph - N/A   Overcast
5:35 AM 51.8 °F 50.4 °F 95% 29.68 in 10.0 mi West 4.6 mph - N/A   Overcast
5:55 AM 51.8 °F 50.2 °F 94% 29.67 in 10.0 mi Calm Calm - N/A   Overcast
6:15 AM 51.8 °F 50.2 °F 94% 29.67 in 10.0 mi Calm Calm - N/A   Overcast
6:35 AM 51.8 °F 50.2 °F 94% 29.68 in 4.0 mi South 3.5 mph - N/A   Overcast
6:55 AM 51.8 °F 50.2 °F 94% 29.67 in 2.0 mi Calm Calm - N/A   Overcast
7:15 AM 51.8 °F 50.2 °F 94% 29.67 in 1.5 mi SW 3.5 mph - N/A   Overcast
7:35 AM 51.8 °F 50.4 °F 95% 29.68 in 1.5 mi SSW 5.8 mph - N/A   Overcast
7:55 AM 51.8 °F 50.4 °F 95% 29.68 in 3.0 mi SSW 5.8 mph - N/A   Overcast
8:15 AM 51.8 °F 50.4 °F 95% 29.68 in 4.0 mi SW 6.9 mph - N/A   Overcast
8:35 AM 51.8 °F 50.4 °F 95% 29.68 in 5.0 mi SW 6.9 mph - N/A   Overcast
8:55 AM 51.8 °F 50.4 °F 95% 29.68 in 10.0 mi SW 8.1 mph - N/A   Overcast
9:15 AM 51.8 °F 50.2 °F 94% 29.68 in 10.0 mi SW 6.9 mph - N/A   Overcast
9:35 AM 51.8 °F 49.5 °F 92% 29.68 in 10.0 mi SSW 8.1 mph - N/A   Overcast
9:55 AM 51.8 °F 49.1 °F 90% 29.68 in 10.0 mi SW 6.9 mph - N/A   Overcast
10:15 AM 51.8 °F 47.8 °F 86% 29.68 in 10.0 mi SSW 5.8 mph - N/A   Mostly Cloudy
10:35 AM 51.8 °F 46.9 °F 83% 29.68 in 10.0 mi SW 5.8 mph - N/A   Overcast
10:55 AM 51.8 °F 46.8 °F 83% 29.69 in 10.0 mi WSW 8.1 mph - N/A   Overcast
11:15 AM 51.8 °F 46.2 °F 81% 29.69 in 10.0 mi West 8.1 mph - N/A   Overcast
11:35 AM 51.8 °F 45.5 °F 79% 29.69 in 10.0 mi West 6.9 mph - N/A   Overcast
11:55 AM 52.0 °F 45.0 °F 77% 29.69 in 10.0 mi West 8.1 mph - N/A   Overcast
12:15 PM 56.1 °F 48.2 °F 75% 29.69 in 10.0 mi West 8.1 mph - N/A   Overcast
12:35 PM 51.8 °F 45.7 °F 80% 29.69 in 10.0 mi West 9.2 mph - N/A   Overcast
12:55 PM 53.4 °F 46.6 °F 78% 29.68 in 10.0 mi West 8.1 mph - N/A   Overcast
1:15 PM 56.8 °F 47.5 °F 71% 29.67 in 10.0 mi SW 4.6 mph - N/A   Mostly Cloudy
1:35 PM 56.8 °F 46.8 °F 69% 29.67 in 10.0 mi West 3.5 mph - N/A   Scattered Clouds
1:55 PM 56.8 °F 46.0 °F 67% 29.66 in 10.0 mi WNW 5.8 mph - N/A   Scattered Clouds
2:15 PM 56.8 °F 45.5 °F 66% 29.66 in 10.0 mi West 6.9 mph - N/A   Scattered Clouds
2:35 PM 56.8 °F 46.8 °F 69% 29.66 in 10.0 mi Calm Calm - N/A   Mostly Cloudy
2:55 PM 56.8 °F 46.0 °F 67% 29.65 in 10.0 mi West 5.8 mph - N/A   Mostly Cloudy
3:15 PM 56.8 °F 45.7 °F 66% 29.64 in 10.0 mi SW 3.5 mph - N/A   Scattered Clouds
3:35 PM 57.0 °F 46.0 °F 67% 29.64 in 10.0 mi NW 6.9 mph - N/A   Mostly Cloudy
3:55 PM 56.8 °F 47.1 °F 70% 29.64 in 10.0 mi NNW 4.6 mph - N/A   Scattered Clouds
4:15 PM 57.0 °F 46.8 °F 69% 29.65 in 10.0 mi West 3.5 mph - N/A   Mostly Cloudy
4:35 PM 56.8 °F 48.0 °F 72% 29.65 in 10.0 mi NW 8.1 mph - N/A   Overcast
4:55 PM 56.8 °F 49.5 °F 76% 29.65 in 10.0 mi NNW 3.5 mph - N/A   Overcast
5:15 PM 56.8 °F 49.6 °F 77% 29.66 in 10.0 mi North 4.6 mph - N/A   Overcast
5:35 PM 56.8 °F 50.0 °F 78% 29.66 in 10.0 mi NNW 3.5 mph - N/A   Overcast
5:55 PM 56.8 °F 50.7 °F 80% 29.66 in 10.0 mi NNW 8.1 mph - N/A   Overcast
6:15 PM 54.5 °F 48.7 °F 81% 29.67 in 10.0 mi North 5.8 mph - N/A   Overcast
6:35 PM 53.1 °F 48.7 °F 85% 29.67 in 10.0 mi North 10.4 mph - N/A   Overcast
6:55 PM 51.8 °F 47.7 °F 86% 29.67 in 10.0 mi NNW 13.8 mph 18.4 mph N/A   Overcast
7:15 PM 51.8 °F 48.2 °F 88% 29.68 in 10.0 mi North 8.1 mph - N/A   Overcast
7:35 PM 51.8 °F 48.2 °F 88% 29.69 in 10.0 mi North 9.2 mph - N/A   Overcast
7:55 PM 51.8 °F 48.4 °F 88% 29.69 in 10.0 mi North 5.8 mph - N/A   Overcast
8:15 PM 51.8 °F 48.2 °F 88% 29.70 in 10.0 mi North 6.9 mph - N/A   Overcast
8:35 PM 51.4 °F 48.2 °F 89% 29.70 in 5.0 mi North 6.9 mph - N/A   Overcast
8:55 PM 49.3 °F 47.1 °F 92% 29.70 in 3.0 mi NNW 4.6 mph - N/A   Light Drizzle
9:15 PM 49.3 °F 47.3 °F 93% 29.70 in 3.0 mi NNW 6.9 mph - N/A Rain Light Rain
9:35 PM 49.3 °F 47.3 °F 93% 29.70 in 3.0 mi NNW 3.5 mph - N/A   Drizzle
9:55 PM 49.3 °F 47.5 °F 94% 29.71 in 2.5 mi NNW 3.5 mph - N/A Rain Rain
10:15 PM 48.2 °F 46.4 °F 93% 29.72 in 4.0 mi NNW 9.2 mph 19.6 mph 0.01 in Rain Rain
10:35 PM 46.8 °F 45.0 °F 93% 29.72 in 4.0 mi NW 5.8 mph - 0.04 in Rain Rain
10:55 PM 46.8 °F 45.0 °F 93% 29.72 in 5.0 mi NNW 6.9 mph - 0.06 in Rain Rain
11:15 PM 46.8 °F 45.0 °F 93% 29.72 in 4.0 mi NNW 8.1 mph - 0.01 in   Light Drizzle
11:35 PM 46.8 °F 45.0 °F 93% 29.72 in 3.0 mi NNW 8.1 mph - 0.01 in Rain Light Rain
11:55 PM 46.8 °F 45.0 °F 93% 29.71 in 3.0 mi NNW 11.5 mph 17.3 mph 0.01 in   Drizzle